Weather in Nizhnespasskoye

Russia / Tambov Oblast     52°37′42″N   41°46′24″E
temp.,
°C
wind,
m/s
gust,
m/s
humid.,
%
clouds,
%
prec.,
mm/h
press.,
hPa
HPBL,
m
7 march, sun
sun700:00−11wnw38921 0.0 1016241
03:00−11w37921 0.0 1017225
06:00−12wsw379685 0.0 1016210
09:00−9sw5108578 0.0 1014415
12:00−5sw7137899 0.0 1011975
15:00−3sw91671100 0.0 10061186
18:00−3sw81871100 0.0 10031415
21:00−3wsw91892100 1.3 9991278
8 march, mon
mon800:00−2wsw91794100 0.7 9981308
03:00−5w6138090 1.0 1001606
06:00−7wsw413870 0.0 1002425
09:00−5wsw5118514 0.0 1003597
12:00−2wsw6108099 0.1 10021256
15:00−2w71168100 0.4 10031563
18:00−5w4118655 0.1 1004540
21:00−7wnw399168 0.1 1007344
9 march, tue
tue900:00−11wnw26920 0.0 1009146
03:00−12wnw22950 0.0 101066
06:00−13nw239610 0.0 101290
09:00−11nw248936 0.0 1013250
12:00−8nw357785 0.0 1014588
15:00−8wnw467892 0.0 1015713
18:00−11nw3889100 0.0 1015484
21:00−13nw489297 0.1 1018395
10 march, wed
wed1000:00−14nw369383 0.1 1019266
03:00−16nw359590 0.1 1021227
06:00−18nw379382 0.0 1022294
09:00−18nw478574 0.0 1024397
12:00−15nw467769 0.0 1025572
15:00−14nw467448 0.0 1026598
18:00−17nw368710 0.0 1026352
21:00−19nw25925 0.0 1029193
11 march, thu
thu1100:00−20nw22950 0.0 1029108
03:00−20nw12960 0.0 103171
06:00−21wnw12930 0.0 103160
09:00−16w12710 0.0 1032209
12:00−11w23582 0.0 1031448
15:00−11sw34671 0.0 1031476
18:00−14ssw35830 0.0 1030197
21:00−16s36780 0.0 1031157